Home   Weather   Orléans   Past weeks

Flag for France Past Weather in Orléans, Centre-Val de Loire, France — Yesterday and Last 2 Weeks

Now
57 °F

Clear.


Feels Like: 56 °F
Forecast: 53 / 61 °F
Wind: 7 mph from South

Location: Orleans Airport

Current Time: Sep 29, 2016 at 5:21:03 AM

Latest Report: Sep 29, 2016 at 4:30 AM


Visibility: 10 mi

Pressure: 30.24 "Hg

Humidity: 94%

Dew Point: 55 °F

Location of OrléansLocation

Past Weather in Orléans — Graph

°F

Orléans Temperature Yesterday

Maximum temperature yesterday: 72 °F (at 5:30 PM)
Minimum temperature yesterday: 52 °F (at 7:30 AM)
Average temperature yesterday: 62 °F

High & Low Weather Summary for the Past Weeks

 TemperatureHumidityPressure
High79 °F (Sep 24, 4:30 PM)100% (Sep 15, 5:00 AM)30.42 "Hg (Sep 15, 5:00 AM)
Low45 °F (Sep 21, 7:00 AM)28% (Sep 24, 5:00 PM)29.77 "Hg (Sep 15, 4:30 AM)
Average61 °F76%30.11 "Hg
* Reported Sep 14 4:00 AM — Sep 29 4:00 AM, Orléans, Weather by CustomWeather, © 2016

Note: Actual official high and low records may vary slightly from our data, if they occured in-between our weather recording intervals... More about our weather records

Advertising

Orléans Weather History for the Previous 24 Hours

Scroll right to see more
 ConditionsComfort  
Time TempWeatherWind HumidityBarometerVisibility
4:00 AM
Thu, Sep 29
57 °FClear.6 mph94%30.27 "Hg10 mi
3:30 AM57 °FClear.6 mph94%30.27 "Hg10 mi
3:00 AM57 °FClear.5 mph94%30.27 "Hg10 mi
2:30 AM59 °FClear.3 mph94%30.30 "Hg10 mi
2:00 AM59 °FClear.8 mph88%30.30 "Hg10 mi
1:30 AM59 °FClear.7 mph94%30.30 "Hg10 mi
1:00 AM59 °FClear.6 mph94%30.30 "Hg10 mi
12:30 AM59 °FClear.5 mph88%30.30 "Hg10 mi
12:00 AM59 °FClear.5 mph94%30.33 "Hg10 mi
11:30 PM
Wed, Sep 28
59 °FClear.6 mph94%30.33 "Hg10 mi
11:00 PM61 °FClear.5 mph88%30.33 "Hg10 mi
10:30 PM61 °FClear.5 mph88%30.33 "Hg10 mi
10:00 PM61 °FClear.5 mph88%30.36 "Hg10 mi
9:30 PM61 °FClear.3 mph88%30.36 "Hg10 mi
9:00 PM59 °FClear.5 mph88%30.36 "Hg10 mi
8:30 PM61 °FClear.5 mph83%30.36 "Hg10 mi
8:00 PM63 °FClear.7 mph83%30.36 "Hg10 mi
7:30 PM66 °FSunny.7 mph73%30.36 "Hg10 mi
7:00 PM68 °FSunny.10 mph69%30.36 "Hg10 mi
6:30 PM70 °FPassing clouds.9 mph69%30.36 "HgN/A
6:00 PM70 °FPassing clouds.8 mph69%30.36 "HgN/A
5:30 PM72 °FOvercast.9 mph65%30.36 "HgN/A
5:00 PM70 °FOvercast.8 mph69%30.36 "HgN/A
4:30 PM70 °FOvercast.10 mph64%30.36 "HgN/A
4:00 PM70 °FOvercast.10 mph64%30.39 "HgN/A
3:30 PM70 °FOvercast.14 mph64%30.39 "HgN/A
3:00 PM70 °FOvercast.14 mph69%30.39 "HgN/A
2:30 PM70 °FOvercast.14 mph69%30.39 "HgN/A
2:00 PM70 °FOvercast.16 mph64%30.39 "HgN/A
1:30 PM68 °FPartly sunny.14 mph73%30.39 "HgN/A
1:00 PM70 °FMore clouds than sun.15 mph73%30.39 "HgN/A
12:30 PM68 °FMostly cloudy.14 mph78%30.42 "HgN/A
12:00 PM68 °FBroken clouds.13 mph78%30.42 "HgN/A
11:30 AM66 °FLow clouds.12 mph83%30.42 "HgN/A
11:00 AM64 °FPartly sunny.9 mph83%30.42 "HgN/A
10:30 AM63 °FOvercast.8 mph83%30.42 "HgN/A
10:00 AM61 °FOvercast.3 mph88%30.42 "HgN/A
9:30 AM59 °FPartly sunny.5 mph82%30.39 "HgN/A
9:00 AM57 °FPartly sunny.5 mph82%30.39 "HgN/A
8:30 AM54 °FSunny.3 mph88%30.39 "Hg10 mi
8:00 AM52 °FPassing clouds.5 mph94%30.39 "HgN/A
7:30 AM52 °FClear.5 mph88%30.39 "Hg10 mi
7:00 AM54 °FClear.5 mph82%30.39 "Hg10 mi
6:30 AM54 °FClear.6 mph82%30.39 "Hg10 mi
6:00 AM54 °FClear.2 mph82%30.39 "Hg10 mi
5:30 AM54 °FClear.3 mph82%30.36 "Hg10 mi
5:00 AM55 °FPassing clouds.5 mph77%30.36 "HgN/A
Weather by CustomWeather, © 2016

See weather overviewHow to use our weather pages